Location: Chenereilles
(45.4866°N, 4.0790°E)
Time: 23:02:25
(UTC+00:00)

Genesis I - Pass Details

Date: 12 November 2019
Orbit: 491 x 533 km, 64.5° (Epoch: 05 December)

Event Time Altitude Azimuth Distance (km) Brightness Sun altitude
Rises 18:06:31 0° 228° (SW) 2,667 7.7 -19.2°
Reaches altitude 10° 18:08:45 10° 233° (SW) 1,781 6.8 -19.6°
Maximum altitude 18:12:39 51° 311° (NW) 675 4.0 -20.3°
Enters shadow 18:14:22 29° 12° (NNE) 993 4.4 -20.6°
